Regional Weather Roundup
Issued by NWS

Home | Current Version | Previous Version | Graphics & Text | Print | Product List | Glossary On
Versions: 1 2 3 4 5 6 7 8 9 10 11 12 13 14 15 16 17 18 19 20 21 22 23 24 25 26 27 28 29 30 31 32 33 34 35 36 37 38 39 40 41 42 43 44 45 46 47 48 49 50
000
ASUS45 KABQ 050210
RWRNM
NEW MEXICO REGIONAL WEATHER ROUNDUP
NATIONAL WEATHER SERVICE ALBUQUERQUE NM
800 PM MDT TUE AUG 04 2015

NOTE: "FAIR" MEANS FEW OR NO CLOUDS BELOW 12,000 FEET AGL WITH NO
       SIGNIFICANT WEATHER OR OBSTRUCTIONS TO VISION.

      THIS PRODUCT IS RELEASED AS TWO VERSIONS.  ONE VERSION NEAR
      THE TOP OF THE HOUR CONTAINING PRELIMINARY DATA FROM ALBUQUERQUE
      AND OTHER STATIONS.  A FINAL VERSION WITH ADDITIONAL DATA IS
      ISSUED ABOUT 10 MINUTES AFTER THE HOUR.

NMZ501-503-504-510>518-050300-
NORTHWEST PLATEAU/NORTHCENTRAL MOUNTAINS

CITY           SKY/WX    TMP DP  RH WIND       PRES   REMARKS
FARMINGTON     CLEAR     85  38  18 NW8       30.12R
LOS ALAMOS     CLEAR     77  34  21 NW6       30.28R
SANTA FE       CLEAR     80  39  23 NW8       30.18R
TAOS           PTCLDY   N/A N/A N/A W10       30.26R
ANGEL FIRE     FAIR      62  47  57 CALM      30.36R

$$
NMZ402-403-502-505>509-050300-
WESTCENTRAL MOUNTAINS/SOUTHWEST MOUNTAINS

CITY           SKY/WX    TMP DP  RH WIND       PRES   REMARKS
GALLUP         FAIR      80  37  21 W8        30.21R
GRANTS         FAIR      74  48  39 W6        30.23R
SILVER CITY      N/A     84  52  32 E7        30.16R

$$
NMZ407-409-411-412-050300-
SOUTHERN DESERTS

CITY           SKY/WX    TMP DP  RH WIND       PRES   REMARKS
LORDSBURG      FAIR      93  41  16 W7        30.03R
DEMING         FAIR      92  49  22 CALM      30.04R
LAS CRUCES     FAIR      86  56  36 CALM      30.07R
HOLLOMAN AFB   CLEAR     93  44  18 NW7       29.99R
ALAMOGORDO     CLEAR     91  45  19 W6        30.02R
T OR C         FAIR      88  49  25 SW6       30.07R

$$
NMZ519>523-050300-
CENTRAL VALLEYS/CENTRAL HIGHLANDS

CITY           SKY/WX    TMP DP  RH WIND       PRES   REMARKS
ALBUQUERQUE    PTCLDY    90  40  17 N9        30.10S
DOUBLE EAGLE   PTCLDY    81  46  30 NW7       30.15F
MORIARTY ARPT    N/A     78  48  35 NW3       30.19S
CLINES CORNERS CLEAR     73  49  42 W10       30.24R
BELEN          FAIR      88  36  16 N3        30.09R
SOCORRO        FAIR      88  42  19 W5        30.06R

$$
NMZ524>526-539-540-050300-
SOUTHCENTRAL MOUNTAINS

CITY           SKY/WX    TMP DP  RH WIND       PRES   REMARKS
RUIDOSO          N/A    N/A N/A N/A MISG        N/A

$$
NMZ527>531-050300-
NORTHEAST HIGHLANDS/NORTHEAST PLAINS

CITY           SKY/WX    TMP DP  RH WIND       PRES   REMARKS
RATON          PTCLDY    75  51  43 N8        30.14R
CLAYTON        CLEAR     77  62  59 CALM      30.03R

$$
NMZ532>537-050300-
EASTCENTRAL PLAINS

CITY           SKY/WX    TMP DP  RH WIND       PRES   REMARKS
TUCUMCARI      CLEAR     81  64  56 S7        29.95R
CANNON AFB     CLEAR     86  60  42 SE5       30.01S
CLOVIS AIRPORT CLEAR     82  59  44 SE8       30.03

$$
NMZ028-029-538-050300-
SOUTHEAST PLAINS

CITY           SKY/WX    TMP DP  RH WIND       PRES   REMARKS
ROSWELL        PTCLDY    92  50  23 E3        29.96R
ARTESIA        CLEAR     93  55  27 SW3       29.96R
CARLSBAD       CLEAR     94  48  20 SE7       29.93R
HOBBS          LGT RAIN  84  64  51 SE8       30.00R


$$



USA.gov is the U.S. government's official web portal to all federal, state and local government web resources and services.